Location: Unspecified
(0.0000°N, 0.0000°E)
Time: 13:53:50
(UTC+02:00)

Cosmos 2369 Rocket - Visible Passes

Search period start: 28 April 2015 00:00
Search period end: 08 May 2015 00:00
Orbit: 830 x 851 km, 71.0° (Epoch: 26 April)

Date Brightness Start Highest point End Pass type
(mag) Time Alt. Az. Time Alt. Az. Time Alt. Az.
28 Apr 4.6 22:28:16 10° SW 22:39:39 - N 22:28:52 13° SW visible
29 Apr 3.7 20:31:54 10° SE 20:34:13 13° ESE 20:36:58 10° E visible
29 Apr 3.3 22:12:54 10° SW 22:18:14 41° WNW 22:23:28 10° N visible
30 Apr 3.8 20:17:06 10° SE 20:18:55 12° ESE 20:21:11 10° E visible
30 Apr 3.2 21:57:32 10° SSW 22:02:57 45° WNW 22:08:15 10° N visible
01 May 3.1 21:42:12 10° SSW 21:47:39 49° WNW 21:53:02 10° N visible
02 May 2.9 21:26:51 10° SSW 21:32:22 53° WNW 21:37:49 10° N visible
03 May 2.8 21:11:31 10° SSW 21:17:05 57° WNW 21:22:34 10° N visible
04 May 2.7 20:56:12 10° SSW 21:01:47 62° WNW 21:07:20 10° N visible
05 May 2.6 20:40:53 10° SSW 20:46:30 67° WNW 20:52:04 10° N visible
06 May 2.5 20:25:34 10° SSW 20:31:13 73° WNW 20:36:49 10° N visible
07 May 4.7 07:26:50 10° NNE 07:31:29 28° ENE 07:36:20 10° SE visible
